AirNav   ProFlight Series 2 Aviation Headset
 
 1446 users online  

KFUL Fullerton Municipal Airport
Fullerton, California, USA

GOING TO FULLERTON?


FAA INFORMATION EFFECTIVE 16 JULY 2020

Location

FAA Identifier: FUL
Lat/Long: 33-52-19.2510N 117-58-47.2230W
33-52.320850N 117-58.787050W
33.8720142,-117.9797842
(estimated)
Elevation: 96 ft. / 29.3 m (surveyed)
Variation: 14E (1985)
From city: 3 miles W of FULLERTON, CA
Time zone: UTC -7 (UTC -8 during Standard Time)
Zip code: 92833

Airport Operations

Airport use: Open to the public
Activation date: 04/1940
Control tower: yes
ARTCC: LOS ANGELES CENTER
FSS: RIVERSIDE FLIGHT SERVICE STATION
NOTAMs facility: FUL (NOTAM-D service available)
Attendance: 0700-2100
Pattern altitude: 1100 ft. MSL
Wind indicator: lighted
Segmented circle: yes
Lights: WHEN ATCT CLSD ACTVT RLLS RWY 24; REIL RWY 06 & 24; PVASI RWY 06; PAPI RWY 24; MIRL RWY 06/24; TWY LGTS - CTAF.
Beacon: white-green (lighted land airport)
Operates sunset to sunrise.

Airport Communications

CTAF: 119.1
UNICOM: 122.95
ATIS: 125.05
WX ASOS: PHONE 714-870-1372
FULLERTON GROUND: 121.8 [0700-2100]
FULLERTON TOWER: 119.1 [0700-2100]
SOCAL APPROACH: 125.35
SOCAL DEPARTURE: 125.35
HAWWC DP: 125.35
WX ASOS at LGB (9 nm W): PHONE 562-424-0572
WX ASOS at SNA (13 nm SE): PHONE 714-424-0590
WX AWOS-3PT at EMT (13 nm N): 118.75 ((626) 444-1107)
WX AWOS-3PT at CPM (13 nm W): 127.150 (310-631-4958)
WX AWOS-3PT at POC (16 nm NE): 124.4 (909-596-1523)
WX ASOS at HHR (18 nm W): PHONE 310-973-8930
WX ASOS at CNO (18 nm E): PHONE 909-393-5823
WX AWOS-3PT at AJO (19 nm E): 132.175 (951-340-4764)
  • COMMUNICATIONS PRVDD BY RIVERSIDE RADIO ON FREQ 122.45 (SANTA ANA RCO).

Nearby radio navigation aids

VOR radial/distance  VOR name  Freq  Var
SLIr020/6.5SEAL BEACH VORTAC115.7015E
POMr203/15.7POMONA VORTAC110.4015E
ELBr299/17.1EL TORO VOR/DME117.2014E
PDZr248/22.6PARADISE VORTAC112.2015E
LAXr084/22.8LOS ANGELES VORTAC113.6015E
SMOr094/25.1SANTA MONICA VOR/DME110.8015E
RALr245/(26.9)RIVERSIDE VOR112.4014E
VNYr115/33.0VAN NUYS VOR/DME113.1015E
SXCr021/37.0SANTA CATALINA VORTAC111.4015E

Airport Services

Fuel available: 100LL JET-A
Parking: tiedowns
Airframe service: MAJOR
Powerplant service: MAJOR
Bottled oxygen: HIGH
Bulk oxygen: HIGH

Runway Information

Runway 6/24

Dimensions: 3121 x 75 ft. / 951 x 23 m
Surface: asphalt, in good condition
Weight bearing capacity: 
Single wheel: 12.5
Runway edge lights: medium intensity
RUNWAY 6  RUNWAY 24
Latitude: 33-52.263450N33-52.379333N
Longitude: 117-59.088333W117-58.487350W
Elevation: 84.9 ft.95.5 ft.
Traffic pattern: leftright
Runway heading: 063 magnetic, 077 true243 magnetic, 257 true
Displaced threshold: 427 ft.253 ft.
Markings: basic, in good conditionnonprecision, in good condition
Visual slope indicator: pulsating/steady burning VASI on left (4.00 degrees glide path)4-light PAPI on left (4.00 degrees glide path)
Approach lights: RLLS
Runway end identifier lights: yesyes
Touchdown point: yes, no lightsyes, no lights
Instrument approach: LOC/DME
Obstructions: none
+8 FT FENCE AT 55 FT & +15 FT STREET AT 65 FT FM APCH END RY 06.
23 ft. rr, 225 ft. from runway, 80 ft. left and right of centerline, 1:1 slope to clear
+8 FT FENCE AT 15 FT & +15 FT STREET AT 17 FT; POLE & RR AT 100 FT FM APCH END RY 24.

Helipad H1

Dimensions: 37 x 37 ft. / 11 x 11 m
Surface: concrete
Traffic pattern: leftleft

Airport Ownership and Management from official FAA records

Ownership: Publicly-owned
Owner: CITY OF FULLERTON
303 W. COMMONWEALTH AVE
FULLERTON, CA 92832
Phone 714-738-6310
Manager: BRENDAN O'REILLY
4011 W COMMONWEALTH AVE
FULLERTON, CA 92833-2537
Phone 714-738-6323

Airport Operational Statistics

Aircraft based on the field: 283
Single engine airplanes: 256
Multi engine airplanes: 9
Helicopters: 16
Gliders airplanes: 2
    
Aircraft operations: avg 189/day *
60% transient general aviation
39% local general aviation
<1% air taxi
<1% military
<1% commercial
* for 12-month period ending 31 August 2019

Additional Remarks

ARPT HAS NOISE ABATEMENT PROCEDURES CTC AMGR (714) 738-6323.
RY 06 CALM WIND RY.
PORTIONS OF TWY A BTN INTERSECTION F & WEST END NOT VSBL FM ATCT.
FOR NOISE ABATEMENT RY 06 PREFERRED FOR TKOF; FOLLOW RR TRACKS TO EAST WITH NO TURNS BLO 1000 FT AGL. RY 24 DEP CLIMB TO 700 FT AGL PRIOR TO TURNS.
(84) SEGMENTED CIRCLE LGTD.
LGTD 750 FT TOWER 1.75 MILES WEST OF ARPT ON HEADING OF 285 DEG FROM ARPT.
FOR CD WHEN ATCT CLSD CTC SOCAL APCH AT 800-448-3724.

Instrument Procedures

NOTE: All procedures below are presented as PDF files. If you need a reader for these files, you should download the free Adobe Reader.

NOT FOR NAVIGATION. Please procure official charts for flight.
FAA instrument procedures published for use from 16 July 2020 at 0901Z to 13 August 2020 at 0900Z.

 
STARs - Standard Terminal Arrivals
KAYOH SEVEN **CHANGED**   download (328KB)
 
IAPs - Instrument Approach Procedures
RNAV (GPS) RWY 24   download (251KB)
LOC/DME RWY 24   download (284KB)
VOR-A   download (233KB)
NOTE: Special Alternate Minimums apply   download (18KB)
 
Departure Procedures
ANAHEIM ONE   2 pages: [1] [2] (426KB)
HAWWC THREE (RNAV)   download (208KB)
NOTE: Special Take-Off Minimums/Departure Procedures apply   download (132KB)

Other nearby airports with instrument procedures:

KSLI - Los Alamitos Army Airfield (6 nm SW)
KLGB - Long Beach Airport (Daugherty Field) (9 nm W)
KSNA - John Wayne-Orange County Airport (13 nm SE)
KEMT - San Gabriel Valley Airport (13 nm N)
KPOC - Brackett Field Airport (16 nm NE)
KHHR - Jack Northrop Field/Hawthorne Municipal Airport (18 nm W)
KCNO - Chino Airport (18 nm E)
KTOA - Zamperini Field Airport (18 nm W)
KAJO - Corona Municipal Airport (19 nm E)
 
Loc | Ops | Rwys | IFR | FBO | Links
Com | Nav | Svcs | Stats | Notes

San Bernardino International Airport Authority
 
Area around KFUL (Fullerton Municipal Airport)
 
Road maps at: MapQuest Bing Google
 
Aerial photo
WARNING: Photo may not be current or correct
Aerial photo of KFUL (Fullerton Municipal Airport)
Photo courtesy of focalflight.com
Photo taken 09-Feb-2017
looking west.

Do you have a better or more recent aerial photo of Fullerton Municipal Airport that you would like to share? If so, please send us your photo.

 
Sectional chart

 
Airport diagram
CAUTION: Diagram may not be current
Diagram of KFUL (Fullerton Municipal Airport)
Download PDF
of official airport diagram from the FAA

 
Airport distance calculator
Flying to Fullerton Municipal Airport? Find the distance to fly.

From to KFUL

Sunrise and sunset
Times for 11-Aug-2020
 Local
(UTC-7)
 Zulu
(UTC)
Morning civil twilight05:4612:46
Sunrise06:1313:13
Sunset19:4102:41
Evening civil twilight20:0803:08

Current date and time
Zulu (UTC)  11-Aug-2020 14:16:30
Local (UTC-7)  11-Aug-2020 07:16:30
 
METAR
KFUL 111353Z 00000KT 7SM FEW010 17/14 A2992 RMK AO2 SLP129 T01720139
KSLI 
7nm SW 
111358Z 00000KT 10SM CLR 18/12 A2994 RMK SLP142 WND DATA ESTMD ALSTG/SLP ESTMD
KLGB 
9nm W 
111353Z AUTO 31005KT 7SM CLR 16/14 A2993 RMK AO2 SLP133 T01610144
KEMT 
12nm N 
110250Z 21007KT 10SM CLR 23/12 A2989
KSNA 
14nm SE 
111353Z 00000KT 9SM CLR 17/14 A2992 RMK AO2 SLP130 T01720144 $
KCQT 
17nm NW 
111352Z AUTO 00000KT 5SM HZ FEW005 17/14 A2992 RMK AO2 SLP131 T01670139
KPOC 
17nm NE 
102347Z 25011KT 10SM CLR 32/12 A2990
KTOA 
18nm W 
110056Z 27016KT 10SM FEW020 21/17 A2989
KHHR 
18nm W 
111353Z 24005KT 8SM OVC007 16/13 A2993 RMK AO2 SLP133 T01610133
KAJO 
19nm E 
111356Z AUTO 00000KT 10SM CLR 13/12 A2993 RMK AO2 SLP130 T01280117
TAF
KSLI 
7nm SW 
1105/1211 VRB06KT 9999 SKC QNH2986INS TEMPO 1113/1116 8000 BR BKN008 BECMG 1119/1120 25010G15KT 9999 SKC QNH2994INS TEMPO 1210/1211 VRB06KT 8000 BR BKN012 TX26/1123Z TN14/1114Z
KLGB 
9nm W 
111126Z 1112/1212 32005KT P6SM SKC FM111900 21008KT P6SM SKC FM112300 30008KT P6SM SKC FM120600 VRB03KT P6SM SKC
KSNA 
14nm SE 
111132Z 1112/1212 VRB04KT P6SM FEW010 FM112000 22009KT P6SM SKC FM120200 VRB04KT P6SM FEW009 FM120800 VRB04KT P6SM BKN009
NOTAMs
Click for the latest NOTAMs
NOTAMs are issued by the DoD/FAA and will open in a separate window not controlled by AirNav.

 

 
 

FBO, Fuel Providers, and Aircraft Ground Support

  
 Business Name 
 
 Contact 
 
 Services / Description 
 
Fuel Prices
 
Comments
  
General Aviation Co., Inc.
No ramp fees
UNICOM 122.95
714-526-6611
714-526-0921
[web site]
[email]
At General Aviation Co, Inc., we strive to maintain the excellent and personalized customer service we are known for.

We offer:
-100LL Avgas, Jet-A Fuel
-Aircraft Maintenance
-Executive Hangar Space, complete with staging/fueling service
-One night free with fuel purchase (no minimum)
-No landing fees, no ramp fees
-Low fuel prices
-Rental cars also available (Hertz, Enterprise, AVIS)
-Crew Car available (first come, first serve)
-Line Service Personnel certified by NATA Safety 1st.

Not taking fuel this time?
Stop by for a cup of Starbucks coffee, or one of our cookies, baked in house!
More info and photos of General Aviation Co., Inc.
 
NATA Safety 1st   U.S. Government AIR Card   WingPoints™ Rewards   Crew car   Avis   Enterprise Rent-A-Car   Hertz   Wireless Internet Access (WiFi)   National Business Aviation Association  
 
Shell
100LL Jet A
FS $4.78 $4.95 
SS $4.18 $4.30 
 Updated 24-Jul-2020
 
   6 read write
Aviation Facilities, Inc. 714-870-9931
no information available

If you are affiliated with Aviation Facilities, Inc. and would like to show here your services, contact info, web link, logo, and more, click here
100LL
PA $5.10 
PS $4.85 
 Updated 07-Aug-2020
 
   write
FS=Full service
PA=Pilot-Assisted
PS=Pump service
SS=Self service
Update Fuel Prices
 

Aviation Businesses, Services, and Facilities

  
 Business Name 
 
 Contact 
 
 Services / Description 
 
Distance
 
Comments
  
Leading Edge Avionics
Leading Edge Avionics
toll-free 1-855-955-6151
[web site]
[email]

Like us on facebook See us on instagram Follow us on twitter
Leading Edge Avionics is a FAA Certified Part 145 Repair Station (137R236D) that provides outstanding avionics repair and installation services for all General Aviation aircraft from business jets to helicopters to single engine airplanes. We are committed to delivering our customers with services that ensure uncompromised safety and the highest quality of workmanship and reliability, while exceeding our clients' expectations on all levels. 24/7 AOG Service is also available at all Southern California airports, so call us at (855) 955-6151 and let us exceed all your service expectations!
More info and photos of Leading Edge Avionics
located at KSNA  
   write
Ben's Motorworks 714-396-6090
[web site]
[email]
Aircraft maintenance, Aircraft modifications, Aircraft parts, Aircraft sales / leasing / brokerage, Aircraft management

More info about Ben's Motorworks
on airport  
   write
 

Would you like to see your business listed on this page?

 If your business provides an interesting product or service to pilots, flight crews, aircraft, or users of the Fullerton Municipal Airport, you should consider listing it here.  To start the listing process, click on the button below
 
Add a business
 

Other Pages about Fullerton Municipal Airport

www.ci.fullerton.ca.us/...
 
Update a link
 
Copyright © AirNav, LLC. All rights reserved. Privacy Policy  Contact